Regional Weather Roundup
Issued by NWS

Home | Current Version | Previous Version | Graphics & Text | Print | Product List | Glossary On
Versions: 1 2 3 4 5 6 7 8 9 10 11 12 13 14 15 16 17 18 19 20 21 22 23 24 25 26 27 28 29 30 31 32 33 34 35 36 37 38 39 40 41 42 43 44 45 46 47 48 49 50
000
ASUS43 KLOT 080308
RWRIL

ILLINOIS REGIONAL WEATHER ROUNDUP
NATIONAL WEATHER SERVICE CHICAGO/ROMEOVILLE IL
900 PM CST SUN FEB 07 2016

NOTE: "FAIR" INDICATES FEW OR NO CLOUDS BELOW 12,000 FEET WITH NO
SIGNIFICANT WEATHER AND/OR OBSTRUCTIONS TO VISIBILITY.

* THESE STATIONS ARE NOT UNDER NWS QUALITY CONTROL. THEY ALSO MAY NOT
  REPORT WEATHER SUCH AS PRECIPITATION OR FOG.

ILZ001-002-007-009-015-016-024-080400-
NORTHWEST ILLINOIS

CITY           SKY/WX    TMP DP  RH WIND       PRES   REMARKS
MOLINE         CLEAR     35  26  69 W14       29.77F WCI  26
STERLING*      CLEAR     34  27  75 SW8       29.73S WCI  27
SAVANNA*       CLEAR     35  28  76 W9        29.74F WCI  28
$$

ILZ003-004-008-010-011-017-018-080400-
NORTH CENTRAL ILLINOIS

CITY           SKY/WX    TMP DP  RH WIND       PRES   REMARKS
ROCKFORD       PTCLDY    34  28  79 W8        29.74F WCI  27
FREEPORT*      CLEAR     32  28  86 SW7       29.74F WCI  26
ROCHELLE*      CLEAR     32  30  92 SW7       29.74F WCI  26
DE KALB*       CLEAR     33  29  84 W9        29.74F WCI  25
$$

ILZ005-006-012>014-019>023-080400-
NORTHEAST ILLINOIS

CITY           SKY/WX    TMP DP  RH WIND       PRES   REMARKS
CHICAGO-OHARE  PTCLDY    35  27  72 W12       29.72F WCI  27
CHICAGO-MIDWAY PTCLDY    38  26  62 W12       29.74F WCI  30
AURORA         CLEAR     33  27  78 SW8       29.75F WCI  26
LANSING*       PTCLDY    36  27  71 W9        29.76F WCI  29
JOLIET*        CLEAR     35  29  79 SW3       29.77S
WAUKEGAN       CLEAR     35  27  72 W5        29.69F WCI  31
DUPAGE AIRPORT CLEAR     34  26  72 W10       29.73F WCI  26
KANKAKEE*      CLOUDY    35  29  81 W6        29.79F WCI  29
WHEELING       CLEAR     36  28  73 W8G17     29.72F WCI  30
MORRIS*        CLEAR     33  28  83 W7        29.75S WCI  27
ROMEOVILLE*    PTCLDY    34  27  76 W7        29.76S WCI  28
NORTHERLY ISL    N/A     39  27  62 W9          N/A  WCI  33
$$

LMZ740>746-080400-
SOUTHERN LAKE MICHIGAN

STATION/POSITION SKY/WX   TEMP    WIND        PRES    VSBY  WAVE
                          AIR SEA DIR/SP/G                  HT/PER
                          (F)     (DEG/KT/KT) (MB)    (MI)  (FT/S)
HARRISON CRIB              41     260/ 22/ 23   N/A
BURNHAM HARBOR             39     260/  6/ 16   N/A
CALUMET HARBOR             40                 1007.0F
BURNS HARBOR               40     240/ 12/ 15 1008.5S
MICHIGAN CITY              37     220/ 16/ 17   N/A
$$

ILZ025>027-034>036-040-047-049-050-058-095>099-080400-
WEST-CENTRAL ILLINOIS

CITY           SKY/WX    TMP DP  RH WIND       PRES   REMARKS
QUINCY         CLOUDY    37  28  70 SW7       29.84F WCI  32
GALESBURG*     CLOUDY    35  29  79 W9        29.79F WCI  28
MACOMB*        CLOUDY    37  29  73 W12       29.84S WCI  29
JACKSONVILLE*  CLEAR     36  32  85 SW7       29.85S WCI  31
PITTSFIELD*    CLEAR     35  30  82 W8        29.87S WCI  29
$$

ILZ028>032-037-038-041>044-048-051>054-059>061-080400-
CENTRAL ILLINOIS

CITY           SKY/WX    TMP DP  RH WIND       PRES   REMARKS
PONTIAC        PTCLDY    34  31  87 W8        29.79F WCI  28
BLOOMINGTON    CLOUDY    36  29  76 W12       29.81F WCI  28
DECATUR        CLOUDY    41  31  67 W15       29.83S
PEORIA         PTCLDY    35  25  66 SW5       29.81F WCI  31
LACON*         PTCLDY    32  26  78 S3        29.79F
LINCOLN*       CLOUDY    40  32  74 CALM      29.83F
SPRINGFIELD    CLOUDY    39  31  72 CALM      29.84F
TAYLORVILLE    CLOUDY    37  32  81 W16G28    29.86S WCI  28
$$

ILZ033-039-045-046-055>057-062-063-080400-
EAST-CENTRAL ILLINOIS

CITY           SKY/WX    TMP DP  RH WIND       PRES   REMARKS
CHAMPAIGN      CLOUDY    38  32  79 W10       29.81F WCI  31
RANTOUL*       CLOUDY    38  34  84 W9        29.79F WCI  32
MATTOON        CLOUDY    42  31  64 SW6       29.82F
PARIS*         CLOUDY    39  33  79 W9        29.82S WCI  33
$$

ILZ079-100>102-080400-
SOUTHWEST ILLINOIS

CITY           SKY/WX    TMP DP  RH WIND       PRES   REMARKS
BELLEVILLE     CLOUDY    43  33  69 NW9       29.88F
CAHOKIA*       PTCLDY    40  31  70 NW8       29.90F
SPARTA*        CLOUDY    44  32  63 SW5       29.90F
$$

ILZ064>066-069>071-074>076-080>082-084>086-088>090-092>094-080400-
SOUTH-CENTRAL ILLINOIS

CITY           SKY/WX    TMP DP  RH WIND       PRES   REMARKS
CARBONDALE     CLOUDY    44  33  65 CALM      29.90S
CAIRO*         CLOUDY    49  34  57 NW16G24   29.91S
EFFINGHAM*     CLOUDY    44  31  61 S9        29.86F
MARION         LGT RAIN  46  34  61 W9G16     29.93R
MT. VERNON     CLOUDY    43  28  56 CALM      29.91S
CENTRALIA*     CLOUDY    41  38  87 S5        29.87F
SALEM*         CLOUDY    42  36  79 S6        29.87F
METROPOLIS*    CLOUDY    47  36  64 SW6       29.89F
$$

ILZ067-068-072-073-078-083-087-091-080400-
SOUTHEAST ILLINOIS

CITY           SKY/WX    TMP DP  RH WIND       PRES   REMARKS
LAWRENCEVILLE  PTCLDY    41  31  67 MISG      29.84F
FLORA*         RAIN      43  36  78 W10       29.90R
FAIRFIELD*     CLOUDY    45  33  61 W13G28    29.87R
HARRISBURG*    CLOUDY    45  32  61 W17G24    29.89R
ROBINSON*      PTCLDY    40  32  73 W6        29.85F
CARMI*         PTCLDY    43  32  64 W7        29.87R
$$

ABBREVIATIONS USED IN REMARKS
   TC - TEMPERATURE IN CELSIUS
  WCI - WIND CHILL INDEX
   HX - HEAT INDEX
  VSB - VISIBILITY
$$




USA.gov is the U.S. government's official web portal to all federal, state and local government web resources and services.